• In United Kingdom
  • List of Countries
  • For 7 days
  • Water Temperature
  • Satellite Maps
  • Weather Map
  • Weather Widgets
  • user-avatar
    Login

    Hourly Weather Perth

    Today, 11 December, Monday

    Time Temperature Precipitation Wind Pressure Humidity
    00:00 +27°C° 0 mm 3 mps 756 mmHg 50%
    01:00 +27°C° 0 mm 3 mps 756 mmHg 49%
    02:00 +27°C° 0 mm 2 mps 756 mmHg 46%
    03:00 +27°C° 0 mm 2 mps 756 mmHg 46%
    04:00 +27°C° 0 mm 2 mps 755 mmHg 45%
    05:00 +27°C° 0 mm 2 mps 755 mmHg 44%
    06:00 +29°C° 0 mm 2 mps 755 mmHg 40%
    07:00 +31°C° 0 mm 2 mps 755 mmHg 36%
    08:00 +34°C° 0 mm 2 mps 756 mmHg 33%
    09:00 +36°C° 0 mm 2 mps 755 mmHg 30%
    10:00 +38°C° 0 mm 2 mps 755 mmHg 27%
    11:00 +39°C° 0 mm 2 mps 754 mmHg 25%
    12:00 +39°C° 0 mm 3 mps 754 mmHg 26%
    13:00 +38°C° 0 mm 4 mps 753 mmHg 28%
    14:00 +37°C° 0 mm 5 mps 753 mmHg 31%
    15:00 +36°C° 0 mm 5 mps 753 mmHg 32%
    16:00 +36°C° 0 mm 5 mps 753 mmHg 34%
    17:00 +35°C° 0 mm 5 mps 753 mmHg 36%
    18:00 +33°C° 0 mm 4 mps 753 mmHg 44%
    19:00 +30°C° 0 mm 4 mps 754 mmHg 51%
    20:00 +27°C° 0 mm 3 mps 754 mmHg 63%
    21:00 +26°C° 0 mm 3 mps 754 mmHg 65%
    22:00 +26°C° 0 mm 2 mps 755 mmHg 68%
    23:00 +25°C° 0 mm 2 mps 755 mmHg 70%

    Tomorrow, 12 December, Tuesday

    Time Temperature Precipitation Wind Pressure Humidity
    00:00 +25°C° 0 mm 2 mps 755 mmHg 72%
    01:00 +25°C° 0 mm 3 mps 755 mmHg 73%
    02:00 +24°C° 0 mm 3 mps 755 mmHg 75%
    03:00 +24°C° 0.2 mm 3 mps 755 mmHg 77%
    04:00 +22°C° 0.2 mm 4 mps 755 mmHg 80%
    05:00 +22°C° 0.2 mm 4 mps 755 mmHg 82%
    06:00 +23°C° 0 mm 4 mps 756 mmHg 76%
    07:00 +25°C° 0 mm 4 mps 756 mmHg 70%
    08:00 +27°C° 0 mm 4 mps 756 mmHg 65%
    09:00 +28°C° 0 mm 5 mps 756 mmHg 57%
    10:00 +30°C° 0 mm 5 mps 756 mmHg 50%
    11:00 +33°C° 0 mm 6 mps 756 mmHg 43%
    12:00 +32°C° 0 mm 6 mps 756 mmHg 41%
    13:00 +32°C° 0 mm 7 mps 756 mmHg 39%
    14:00 +32°C° 0 mm 7 mps 756 mmHg 37%
    15:00 +31°C° 0 mm 8 mps 756 mmHg 41%
    16:00 +29°C° 0 mm 8 mps 756 mmHg 45%
    17:00 +28°C° 0 mm 8 mps 756 mmHg 49%
    18:00 +26°C° 0 mm 8 mps 757 mmHg 54%
    19:00 +24°C° 0 mm 7 mps 757 mmHg 59%
    20:00 +22°C° 0 mm 7 mps 757 mmHg 64%
    21:00 +21°C° 0 mm 7 mps 758 mmHg 64%
    22:00 +21°C° 0 mm 6 mps 759 mmHg 64%
    23:00 +20°C° 0 mm 6 mps 759 mmHg 64%

    Day after tomorrow, 13 December, Wednesday

    Time Temperature Precipitation Wind Pressure Humidity
    00:00 +20°C° 0 mm 6 mps 759 mmHg 66%
    01:00 +19°C° 0 mm 5 mps 759 mmHg 67%
    02:00 +17°C° 0 mm 5 mps 759 mmHg 69%
    03:00 +17°C° 0 mm 5 mps 759 mmHg 71%
    04:00 +16°C° 0 mm 5 mps 760 mmHg 72%
    05:00 +17°C° 0 mm 4 mps 760 mmHg 74%
    06:00 +18°C° 0 mm 4 mps 760 mmHg 67%
    07:00 +20°C° 0 mm 4 mps 761 mmHg 59%
    08:00 +21°C° 0 mm 4 mps 761 mmHg 52%
    09:00 +23°C° 0 mm 4 mps 761 mmHg 46%
    10:00 +26°C° 0 mm 4 mps 761 mmHg 41%
    11:00 +27°C° 0 mm 4 mps 761 mmHg 35%
    12:00 +28°C° 0 mm 5 mps 760 mmHg 35%
    13:00 +29°C° 0 mm 5 mps 760 mmHg 35%
    14:00 +29°C° 0 mm 6 mps 760 mmHg 34%
    15:00 +28°C° 0 mm 6 mps 759 mmHg 37%
    16:00 +28°C° 0 mm 7 mps 759 mmHg 41%
    17:00 +27°C° 0 mm 7 mps 759 mmHg 44%
    18:00 +24°C° 0 mm 7 mps 759 mmHg 48%
    19:00 +23°C° 0 mm 6 mps 760 mmHg 52%
    20:00 +22°C° 0 mm 6 mps 760 mmHg 56%
    21:00 +21°C° 0 mm 6 mps 761 mmHg 55%
    22:00 +21°C° 0 mm 6 mps 761 mmHg 55%
    23:00 +20°C° 0 mm 5 mps 762 mmHg 55%

    14 December, Thursday

    Time Temperature Precipitation Wind Pressure Humidity
    00:00 +20°C° 0 mm 5 mps 761 mmHg 55%
    01:00 +20°C° 0 mm 5 mps 761 mmHg 56%
    02:00 +19°C° 0 mm 5 mps 761 mmHg 56%
    03:00 +19°C° 0 mm 5 mps 761 mmHg 58%
    04:00 +18°C° 0 mm 4 mps 761 mmHg 60%
    05:00 +18°C° 0 mm 4 mps 761 mmHg 62%
    06:00 +19°C° 0 mm 4 mps 761 mmHg 57%
    07:00 +21°C° 0 mm 4 mps 762 mmHg 53%
    08:00 +22°C° 0 mm 4 mps 762 mmHg 49%
    09:00 +25°C° 0 mm 4 mps 762 mmHg 42%
    10:00 +27°C° 0 mm 3 mps 761 mmHg 36%
    11:00 +30°C° 0 mm 3 mps 761 mmHg 30%
    12:00 +30°C° 0 mm 3 mps 760 mmHg 28%
    13:00 +32°C° 0 mm 4 mps 760 mmHg 27%
    14:00 +33°C° 0 mm 4 mps 759 mmHg 26%
    15:00 +32°C° 0 mm 5 mps 759 mmHg 29%
    16:00 +30°C° 0 mm 6 mps 759 mmHg 32%
    17:00 +30°C° 0 mm 6 mps 758 mmHg 35%
    18:00 +27°C° 0 mm 6 mps 759 mmHg 44%
    19:00 +24°C° 0 mm 6 mps 759 mmHg 52%
    20:00 +22°C° 0 mm 6 mps 759 mmHg 61%
    21:00 +22°C° 0 mm 6 mps 759 mmHg 62%
    22:00 +21°C° 0 mm 6 mps 760 mmHg 62%
    23:00 +21°C° 0 mm 5 mps 760 mmHg 63%

    15 December, Friday

    Time Temperature Precipitation Wind Pressure Humidity
    00:00 +21°C° 0 mm 5 mps 759 mmHg 63%
    01:00 +20°C° 0 mm 5 mps 759 mmHg 63%
    02:00 +20°C° 0 mm 5 mps 758 mmHg 63%
    03:00 +20°C° 0 mm 5 mps 758 mmHg 65%
    04:00 +20°C° 0 mm 5 mps 758 mmHg 67%
    05:00 +19°C° 0 mm 5 mps 758 mmHg 68%
    06:00 +21°C° 0 mm 4 mps 758 mmHg 62%
    07:00 +23°C° 0 mm 4 mps 759 mmHg 56%
    08:00 +25°C° 0 mm 4 mps 759 mmHg 50%
    09:00 +28°C° 0 mm 4 mps 758 mmHg 41%
    10:00 +32°C° 0 mm 4 mps 758 mmHg 33%
    11:00 +35°C° 0 mm 3 mps 757 mmHg 24%
    12:00 +36°C° 0 mm 4 mps 756 mmHg 23%
    13:00 +37°C° 0 mm 4 mps 756 mmHg 22%
    14:00 +37°C° 0 mm 5 mps 755 mmHg 21%
    15:00 +36°C° 0 mm 5 mps 754 mmHg 23%
    16:00 +36°C° 0 mm 6 mps 754 mmHg 25%
    17:00 +35°C° 0 mm 6 mps 753 mmHg 26%
    18:00 +33°C° 0 mm 6 mps 754 mmHg 31%
    19:00 +30°C° 0 mm 6 mps 754 mmHg 35%
    20:00 +28°C° 0 mm 6 mps 754 mmHg 39%
    21:00 +28°C° 0 mm 5 mps 754 mmHg 39%
    22:00 +27°C° 0 mm 5 mps 754 mmHg 38%
    23:00 +27°C° 0 mm 4 mps 754 mmHg 38%

    16 December, Saturday

    Time Temperature Precipitation Wind Pressure Humidity
    00:00 +26°C° 0 mm 5 mps 754 mmHg 42%
    01:00 +26°C° 0 mm 5 mps 754 mmHg 45%
    02:00 +25°C° 0 mm 5 mps 753 mmHg 49%
    03:00 +23°C° 0 mm 4 mps 753 mmHg 50%
    04:00 +23°C° 0 mm 4 mps 753 mmHg 52%
    05:00 +22°C° 0 mm 3 mps 752 mmHg 54%
    06:00 +25°C° 0 mm 3 mps 753 mmHg 50%
    07:00 +26°C° 0 mm 2 mps 753 mmHg 46%
    08:00 +28°C° 0 mm 2 mps 753 mmHg 42%
    09:00 +29°C° 0 mm 3 mps 753 mmHg 40%
    10:00 +30°C° 0 mm 5 mps 753 mmHg 37%
    11:00 +33°C° 0 mm 6 mps 752 mmHg 35%
    12:00 +32°C° 0 mm 7 mps 752 mmHg 37%
    13:00 +31°C° 0 mm 8 mps 752 mmHg 40%
    14:00 +29°C° 0 mm 8 mps 752 mmHg 43%
    15:00 +28°C° 0 mm 8 mps 752 mmHg 46%
    16:00 +26°C° 0 mm 8 mps 752 mmHg 49%
    17:00 +24°C° 0 mm 8 mps 752 mmHg 52%
    18:00 +22°C° 0 mm 7 mps 753 mmHg 59%
    19:00 +21°C° 0 mm 7 mps 753 mmHg 66%
    20:00 +20°C° 0 mm 6 mps 754 mmHg 73%
    21:00 +20°C° 0.1 mm 7 mps 754 mmHg 72%
    22:00 +20°C° 0.1 mm 7 mps 754 mmHg 71%
    23:00 +18°C° 0.1 mm 7 mps 754 mmHg 71%
    Show more